[[{"header":{"parameterUnit":"m.s-1","parameterCategory":1,"la1":30.2991,"la2":30.254,"lo1":-89.0895,"lo2":-89.0444,"dy":0.0017,"dx":0.0017,"nx":28,"ny":28,"refTime":"2024-03-14T09:00:00:Z","depth":0,"parameterNumber":2,"parameterNumberName":"U-component_of_WINDS"},"data":[0,0,0,0,0,0,0,0,0,0,0,0,0,0,0,0,0,0,0,0,0,0,0,0,0,0,0,0,0,0,0,0,0,0,0,0,0,0,0,0,0,0,0,0,0,0,0,0,0,0,0,0,0,0,0,0,0,0,-4.5455,-4.5457,0,-4.5569,-4.557,-4.5572,-4.5576,-4.5575,-4.5573,-4.5572,-4.5687,-4.5691,-4.5696,0,0,0,0,0,0,0,0,0,0,0,0,0,-4.5242,-4.5246,-4.5455,-4.5457,-4.5458,-4.5569,-4.557,-4.5572,-4.5576,-4.5574,-4.5573,-4.5571,-4.5686,-4.5691,-4.5696,0,0,0,0,0,0,0,0,0,0,0,0,0,-4.5343,-4.5247,-4.5455,-4.5474,-4.5476,-4.5569,-4.557,-4.5572,-4.5576,-4.5574,-4.5572,-4.557,-4.5684,-4.569,-4.5697,-4.5778,0,0,-4.5717,-4.572,0,0,0,0,0,0,0,0,-4.5337,-4.5351,-4.5469,-4.5472,-4.5476,-4.5556,-4.5537,-4.5641,-4.5577,-4.5538,-4.5572,-4.5569,-4.5645,-4.5655,-4.5681,-4.5783,-4.5788,-4.5717,-4.5721,-4.5724,-4.5726,0,0,0,0,0,0,0,-4.533,-4.5346,-4.55,-4.5471,-4.5475,-4.5476,-4.5488,-4.5557,-4.5602,-4.5542,-4.5542,-4.5556,-4.5647,-4.5674,-4.5683,-4.579,-4.5717,-4.5723,-4.5727,-4.5729,-4.5965,-4.5967,0,0,0,0,0,0,-4.532,-4.534,-4.5497,-4.5504,-4.54,-4.5482,-4.5495,-4.5532,-4.5601,-4.561,-4.5557,-4.5555,-4.5664,-4.5676,-4.5687,-4.5786,-4.5724,-4.573,-4.5734,-4.5963,-4.5966,-4.5968,0,0,0,0,0,0,-4.5315,-4.5333,-4.5492,-4.5422,-4.5442,-4.5488,-4.5529,-4.5536,-4.5563,-4.5613,-4.5621,-4.5577,-4.5663,-4.5678,-4.5755,-4.579,-4.5733,-4.5739,-4.596,-4.5964,-4.5967,-4.5984,0,0,0,0,0,0,-4.5309,-4.5332,-4.5363,-4.5423,-4.5446,-4.5558,-4.5532,-4.5539,-4.5575,-4.5573,-4.5634,-4.5642,-4.5663,-4.5746,-4.5762,-4.5798,-4.5744,-4.5957,-4.5962,-4.5966,-4.5981,-4.5988,-4.5994,0,0,0,0,0,-4.5301,-4.5363,-4.5364,-4.5383,-4.5486,-4.556,-4.5573,-4.5596,-4.5578,-4.5609,-4.5641,-4.564,-4.5784,-4.5754,-4.5772,-4.581,-4.5955,-4.596,-4.5965,-4.5978,-4.5986,-4.5994,0,0,0,0,0,0,-4.5305,-4.5371,-4.5373,-4.5456,-4.5503,-4.5561,-4.5601,-4.5605,-4.5657,-4.5653,-4.5679,-4.5693,-4.5769,-4.5798,-4.5763,-4.5893,-4.5867,-4.5877,-4.587,-4.5879,-4.5886,-4.5876,-4.5749,0,0,0,0,0,-4.5316,-4.537,-4.5425,-4.5493,-4.5517,-4.5555,-4.5588,-4.5602,-4.5651,-4.567,-4.5708,-4.5755,-4.5811,-4.5847,-4.5902,-4.5986,-4.5999,-4.6022,-4.6028,-4.6034,-4.604,-4.6087,-4.6097,-4.5986,-4.5986,-4.5985,0,0,-4.5337,-4.5381,-4.5413,-4.5495,-4.5533,-4.5588,-4.5571,-4.5631,-4.5673,-4.5679,-4.5754,-4.5784,-4.5838,-4.5919,-4.5957,-4.5945,-4.6075,-4.604,-4.6044,-4.6048,-4.6093,-4.6104,-4.6113,-4.5989,-4.5989,-4.5988,0,0,-4.5406,-4.5445,-4.5505,-4.5543,-4.5601,-4.5626,-4.5641,-4.5699,-4.5719,-4.5795,-4.5801,-4.5852,-4.5948,-4.5986,-4.6018,-4.6104,-4.6105,-4.6122,-4.6155,-4.62,-4.6209,-4.6217,-4.6246,-4.6256,-4.6129,-4.6129,-4.6129,0,-4.5425,-4.551,-4.5535,-4.5596,-4.5631,-4.5641,-4.5702,-4.5739,-4.5811,-4.5835,-4.5822,-4.5943,-4.5981,-4.6071,-4.6092,-4.6118,-4.6135,-4.6113,-4.6206,-4.6214,-4.6221,-4.6249,-4.626,-4.613,-4.613,-4.613,-4.613,0,-4.5531,-4.559,-4.5632,-4.5702,-4.5743,-4.5803,-4.5837,-4.5876,-4.5887,-4.5914,-4.5992,-4.6038,-4.6101,-4.6125,-4.6136,-4.6217,-4.6208,-4.62,-4.6175,-4.6233,-4.626,-4.6271,-4.6132,-4.6132,-4.6131,-4.6131,0,0,-4.5601,-4.5686,-4.5701,-4.5732,-4.5798,-4.5844,-4.5906,-4.5969,-4.6,-4.6051,-4.6102,-4.6185,-4.6178,-4.6215,-4.6231,-4.6271,-4.6335,-4.6259,-4.626,-4.6269,-4.6425,-4.6429,-4.6441,-4.6337,-4.6339,-4.6341,-4.642,0,-4.5675,-4.5784,-4.5809,-4.5903,-4.5957,-4.5969,-4.6023,-4.6068,-4.6096,-4.6147,-4.6178,-4.6235,-4.6223,-4.6245,-4.6285,-4.6318,-4.6366,-4.6314,-4.6384,-4.6386,-4.6367,-4.6455,-4.6458,-4.653,-4.6431,-4.6433,-4.6434,0,-4.5774,-4.5827,-4.5926,-4.5985,-4.6009,-4.6056,-4.6116,-4.6165,-4.6218,-4.6235,-4.6277,-4.629,-4.6355,-4.6329,-4.6418,-4.6382,-4.6413,-4.6434,-4.6437,-4.6442,-4.6411,-4.646,-4.6554,-4.6564,-4.6451,-4.645,-4.6448,0,-4.5813,-4.5909,-4.5981,-4.6008,-4.6079,-4.6112,-4.6143,-4.6194,-4.6231,-4.6284,-4.6308,-4.6368,-4.64,-4.6447,-4.6475,-4.6454,-4.6562,-4.6539,-4.6577,-4.6577,-4.6597,-4.6594,-4.6695,-4.6621,-4.6621,-4.6621,-4.6621,0,-4.589,-4.595,-4.5999,-4.6043,-4.611,-4.614,-4.6206,-4.6237,-4.6283,-4.6333,-4.6348,-4.6395,-4.6431,-4.6483,-4.6507,-4.6576,-4.6591,-4.6607,-4.6612,-4.6604,-4.6601,-4.6622,-4.6617,-4.6624,-4.6623,-4.6623,-4.6622,0,-4.5943,-4.5979,-4.6057,-4.6119,-4.6136,-4.6183,-4.6235,-4.6278,-4.6308,-4.6371,-4.6388,-4.6433,-4.6495,-4.653,-4.6608,-4.6623,-4.6701,-4.6704,-4.6682,-4.6684,-4.672,-4.6715,-4.6834,-4.6851,-4.6769,-4.677,-4.677,0,-4.5989,-4.6035,-4.6102,-4.6137,-4.6169,-4.6225,-4.6262,-4.6295,-4.6333,-4.6398,-4.6433,-4.6496,-4.6548,-4.6647,-4.6687,-4.6747,-4.675,-4.6789,-4.6759,-4.675,-4.6749,-4.6744,-4.6749,-4.6792,-4.6793,-4.6794,-4.6794,0,-4.6066,-4.6082,-4.6135,-4.6196,-4.624,-4.629,-4.6338,-4.6366,-4.6407,-4.6449,-4.6513,-4.6554,-4.6634,-4.6696,-4.6759,-4.6792,-4.6799,-4.6804,-4.6815,-4.6806,-4.6791,-4.6798,-4.6693,-4.68,-4.6799,-4.6799,-4.6798,-4.6798,-4.6115,-4.6156,-4.621,-4.627,-4.631,-4.6356,-4.6399,-4.6435,-4.6488,-4.6556,-4.6573,-4.664,-4.6693,-4.6779,-4.6813,-4.6866,-4.6859,-4.6876,-4.688,-4.6883,-4.6884,-4.6785,-4.6878,-4.6878,-4.6878,-4.6878,-4.6878,0,-4.619,-4.6226,-4.6281,-4.6349,-4.6396,-4.6401,-4.6456,-4.6495,-4.6554,-4.6603,-4.6654,-4.6728,-4.6789,-4.6835,-4.6897,-4.6931,-4.6936,-4.6946,-4.6942,-4.6949,-4.6888,-4.687,-4.6941,-4.6941,-4.6941,-4.6941,-4.6941,-4.6941,-4.6235,-4.6305,-4.6328,-4.6418,-4.6454,-4.652,-4.655,-4.6593,-4.6632,-4.6714,-4.6765,-4.6795,-4.6843,-4.6909,-4.6966,-4.6978,-4.6999,-4.7008,-4.702,-4.6961,-4.6954,-4.6947,-4.6931,-4.7013,-4.7013,-4.7078,-4.7078,-4.7079]},{"header":{"parameterUnit":"m.s-1","parameterCategory":1,"la1":30.2991,"la2":30.254,"lo1":-89.0895,"lo2":-89.0444,"dy":0.0017,"dx":0.0017,"nx":28,"ny":28,"refTime":"2024-03-14T09:00:00:Z","depth":0,"parameterNumber":3,"parameterNumberName":"V-component_of_WINDS"},"data":[0,0,0,0,0,0,0,0,0,0,0,0,0,0,0,0,0,0,0,0,0,0,0,0,0,0,0,0,0,0,0,0,0,0,0,0,0,0,0,0,0,0,0,0,0,0,0,0,0,0,0,0,0,0,0,0,0,0,3.2493,3.2493,0,3.2553,3.2554,3.2555,3.2565,3.2564,3.2564,3.2563,3.2622,3.2624,3.2626,0,0,0,0,0,0,0,0,0,0,0,0,0,3.2385,3.2386,3.2492,3.2493,3.2494,3.2553,3.2554,3.2555,3.2565,3.2564,3.2564,3.2563,3.2621,3.2624,3.2626,0,0,0,0,0,0,0,0,0,0,0,0,0,3.2437,3.2387,3.2492,3.2506,3.2508,3.2553,3.2554,3.2555,3.2565,3.2564,3.2563,3.2563,3.2621,3.2624,3.2627,3.2661,0,0,3.2636,3.2637,0,0,0,0,0,0,0,0,3.2434,3.2441,3.2503,3.2505,3.2507,3.2551,3.2538,3.259,3.2565,3.2543,3.2563,3.2562,3.2599,3.2604,3.2617,3.2664,3.2666,3.2636,3.2638,3.2639,3.264,0,0,0,0,0,0,0,3.243,3.2438,3.2516,3.2504,3.2507,3.2509,3.2516,3.2548,3.2574,3.2545,3.2546,3.2553,3.26,3.2614,3.2618,3.2667,3.2636,3.2639,3.2641,3.2642,3.2749,3.275,0,0,0,0,0,0,3.2424,3.2435,3.2514,3.2518,3.2468,3.2512,3.2519,3.2538,3.2574,3.2579,3.2554,3.2553,3.2609,3.2614,3.262,3.2665,3.2639,3.2642,3.2644,3.2748,3.275,3.2751,0,0,0,0,0,0,3.2422,3.2431,3.2512,3.2477,3.2488,3.2514,3.2535,3.2539,3.2553,3.2581,3.2585,3.2563,3.2608,3.2616,3.2652,3.2667,3.2644,3.2647,3.2747,3.2749,3.275,3.2755,0,0,0,0,0,0,3.2419,3.243,3.2444,3.2477,3.2489,3.2543,3.2536,3.2541,3.2559,3.2559,3.2591,3.2595,3.2608,3.2647,3.2655,3.2671,3.2649,3.2746,3.2748,3.275,3.2753,3.2756,3.2758,0,0,0,0,0,3.2415,3.2441,3.2444,3.2454,3.2507,3.2544,3.2551,3.2566,3.256,3.2574,3.2592,3.2594,3.2664,3.2651,3.266,3.2677,3.2745,3.2747,3.275,3.2752,3.2755,3.2758,0,0,0,0,0,0,3.2406,3.2445,3.245,3.2487,3.2513,3.2545,3.2563,3.2569,3.2595,3.2594,3.2611,3.2618,3.2654,3.2669,3.2653,3.2714,3.2704,3.2708,3.2703,3.2707,3.2709,3.2705,3.2651,0,0,0,0,0,3.2409,3.2437,3.2469,3.2499,3.2512,3.2536,3.2552,3.2562,3.2588,3.2599,3.2619,3.2644,3.2672,3.269,3.2717,3.2755,3.2764,3.2772,3.2775,3.2777,3.278,3.2805,3.2809,3.2758,3.2758,3.2758,0,0,3.2414,3.2439,3.2455,3.2498,3.2519,3.2548,3.2544,3.2573,3.2595,3.2603,3.2639,3.2655,3.2684,3.2723,3.274,3.2736,3.2796,3.2779,3.2781,3.2783,3.2807,3.2812,3.2817,3.276,3.2759,3.2759,0,0,3.2439,3.246,3.2489,3.2511,3.2543,3.2559,3.2566,3.26,3.2612,3.2649,3.2656,3.2682,3.2728,3.275,3.2767,3.2804,3.2808,3.2812,3.2826,3.285,3.2854,3.2858,3.2873,3.2878,3.2815,3.2815,3.2815,0,3.2442,3.2486,3.2503,3.2534,3.2553,3.2564,3.2594,3.2614,3.2653,3.2666,3.2661,3.2723,3.2743,3.2788,3.2797,3.281,3.2819,3.2809,3.2852,3.2856,3.286,3.2875,3.288,3.2816,3.2816,3.2816,3.2816,0,3.2488,3.2519,3.2538,3.2578,3.26,3.263,3.2652,3.2672,3.2681,3.2698,3.2737,3.2762,3.2796,3.2807,3.2814,3.2854,3.2851,3.2849,3.2839,3.2865,3.2879,3.2885,3.2816,3.2816,3.2816,3.2816,0,0,3.2507,3.256,3.2567,3.2586,3.2624,3.2648,3.2679,3.2715,3.2732,3.2759,3.2787,3.2828,3.2828,3.2847,3.2858,3.2878,3.2909,3.2874,3.2875,3.2882,3.2957,3.296,3.2966,3.2912,3.2913,3.2914,3.2956,0,3.2538,3.2596,3.2614,3.2662,3.2692,3.2704,3.2732,3.2758,3.2776,3.2803,3.2822,3.2852,3.2848,3.286,3.2881,3.2901,3.2925,3.2898,3.2939,3.294,3.2933,3.2973,3.2975,3.3013,3.2961,3.2962,3.2963,0,3.2581,3.2612,3.2664,3.2702,3.2715,3.2739,3.2775,3.2801,3.2832,3.2843,3.2867,3.2877,3.2911,3.2899,3.2948,3.2929,3.2947,3.296,3.2962,3.2967,3.2954,3.2981,3.3025,3.3031,3.2971,3.2971,3.297,0,3.2593,3.2647,3.2686,3.2702,3.2746,3.2764,3.2783,3.2814,3.2835,3.2865,3.288,3.2913,3.2931,3.2957,3.2976,3.2966,3.3024,3.3013,3.3035,3.3035,3.3047,3.3046,3.3096,3.3056,3.3056,3.3056,3.3056,0,3.2626,3.2658,3.2693,3.2716,3.2753,3.2774,3.281,3.2829,3.2857,3.2886,3.2897,3.2924,3.2947,3.2976,3.2991,3.3031,3.3038,3.3049,3.3053,3.3049,3.3048,3.3061,3.306,3.3057,3.3057,3.3057,3.3056,0,3.2645,3.2669,3.2713,3.2753,3.2764,3.2789,3.2823,3.2848,3.2866,3.2903,3.2912,3.2941,3.2977,3.2999,3.3043,3.3054,3.3098,3.31,3.3088,3.309,3.3112,3.311,3.3173,3.3184,3.3135,3.3135,3.3135,0,3.2665,3.269,3.2734,3.2755,3.2775,3.2808,3.2831,3.2853,3.2876,3.2916,3.2936,3.2973,3.3004,3.3061,3.3086,3.3121,3.3125,3.3145,3.313,3.3126,3.3128,3.3127,3.313,3.3147,3.3148,3.3148,3.3148,0,3.2699,3.2711,3.2743,3.2782,3.2809,3.2839,3.287,3.2886,3.2914,3.2939,3.2977,3.3002,3.305,3.3087,3.3125,3.3144,3.3152,3.3153,3.316,3.3157,3.315,3.3157,3.3097,3.3151,3.3151,3.3151,3.3151,3.315,3.272,3.2745,3.278,3.2817,3.2844,3.2873,3.2899,3.2922,3.2955,3.2997,3.3008,3.3049,3.3082,3.3134,3.3155,3.3187,3.3184,3.3194,3.3197,3.3199,3.3201,3.3144,3.3194,3.3194,3.3194,3.3194,3.3194,0,3.2756,3.2781,3.2815,3.2859,3.2889,3.2895,3.293,3.2954,3.299,3.3022,3.3053,3.3099,3.3136,3.3165,3.3204,3.3224,3.3229,3.3234,3.3233,3.3238,3.32,3.3192,3.323,3.323,3.323,3.323,3.323,3.323,3.2779,3.2822,3.2838,3.2895,3.2919,3.2961,3.2981,3.3008,3.3034,3.3085,3.3117,3.3136,3.3168,3.3209,3.3244,3.3252,3.3266,3.3271,3.3279,3.3244,3.324,3.3236,3.3228,3.3274,3.3274,3.3315,3.3315,3.3315]}]]